[[{"header":{"parameterUnit":"m.s-1","parameterCategory":1,"la1":30.2991,"la2":30.254,"lo1":-89.0895,"lo2":-89.0444,"dy":0.0017,"dx":0.0017,"nx":28,"ny":28,"refTime":"2025-04-18T09:00:00:Z","depth":0,"parameterNumber":2,"parameterNumberName":"U-component_of_WINDS"},"data":[0,0,0,0,0,0,0,0,0,0,0,0,0,0,0,0,0,0,0,0,0,0,0,0,0,0,0,0,0,0,0,0,0,0,0,0,0,0,0,0,0,0,0,0,0,0,0,0,0,0,0,0,0,0,0,0,0,0,-1.8149,-1.815,0,-1.8221,-1.8222,-1.8223,-1.8237,-1.8237,-1.8236,-1.8236,-1.8312,-1.8314,-1.8317,0,0,0,0,0,0,0,0,0,0,0,0,0,-1.8027,-1.8029,-1.8149,-1.815,-1.8151,-1.8221,-1.8222,-1.8223,-1.8237,-1.8237,-1.8236,-1.8235,-1.8311,-1.8314,-1.8317,0,0,0,0,0,0,0,0,0,0,0,0,0,-1.8087,-1.8029,-1.8149,-1.8166,-1.8169,-1.8221,-1.8222,-1.8223,-1.8237,-1.8237,-1.8236,-1.8235,-1.831,-1.8314,-1.8317,-1.8358,0,0,-1.8329,-1.8331,0,0,0,0,0,0,0,0,-1.8084,-1.8092,-1.8163,-1.8165,-1.8168,-1.8219,-1.8207,-1.8268,-1.8238,-1.8211,-1.8236,-1.8235,-1.8282,-1.8288,-1.8303,-1.8361,-1.8365,-1.8329,-1.8332,-1.8333,-1.8334,0,0,0,0,0,0,0,-1.808,-1.8089,-1.8177,-1.8164,-1.8167,-1.8172,-1.8179,-1.8218,-1.825,-1.8214,-1.8215,-1.8223,-1.8283,-1.83,-1.8305,-1.8366,-1.8329,-1.8333,-1.8335,-1.8336,-1.8461,-1.8462,0,0,0,0,0,0,-1.8072,-1.8085,-1.8175,-1.818,-1.8123,-1.8174,-1.8183,-1.8204,-1.825,-1.8256,-1.8224,-1.8223,-1.8293,-1.8301,-1.8308,-1.8359,-1.8333,-1.8337,-1.8339,-1.846,-1.8462,-1.8463,0,0,0,0,0,0,-1.8069,-1.808,-1.8172,-1.8133,-1.8145,-1.8177,-1.82,-1.8205,-1.8222,-1.8258,-1.8264,-1.8234,-1.8293,-1.8303,-1.8345,-1.8361,-1.8339,-1.8342,-1.8459,-1.8461,-1.8462,-1.846,0,0,0,0,0,0,-1.8066,-1.8079,-1.8094,-1.8133,-1.8147,-1.8207,-1.8201,-1.8207,-1.8228,-1.8229,-1.8269,-1.8275,-1.8293,-1.8339,-1.8349,-1.8366,-1.8345,-1.8458,-1.846,-1.8462,-1.8459,-1.8461,-1.8463,0,0,0,0,0,-1.8061,-1.8091,-1.8094,-1.8105,-1.8166,-1.8208,-1.8216,-1.8236,-1.8229,-1.8245,-1.8268,-1.8274,-1.8358,-1.8344,-1.8355,-1.8373,-1.8457,-1.8459,-1.8462,-1.8458,-1.8461,-1.8463,0,0,0,0,0,0,-1.8053,-1.8096,-1.8101,-1.8143,-1.8172,-1.8211,-1.8231,-1.8238,-1.827,-1.8269,-1.8292,-1.8301,-1.8343,-1.8362,-1.8345,-1.8415,-1.8407,-1.8412,-1.8401,-1.8404,-1.8406,-1.8401,-1.8348,0,0,0,0,0,-1.8056,-1.8086,-1.8122,-1.8156,-1.8171,-1.8198,-1.8217,-1.823,-1.8261,-1.8273,-1.8299,-1.833,-1.8363,-1.8385,-1.8417,-1.8462,-1.8471,-1.848,-1.8482,-1.8484,-1.8488,-1.8514,-1.8518,-1.847,-1.847,-1.847,0,0,-1.8063,-1.809,-1.8108,-1.8155,-1.8179,-1.821,-1.8208,-1.8242,-1.8265,-1.8278,-1.832,-1.8341,-1.8376,-1.842,-1.8441,-1.8438,-1.8503,-1.8487,-1.8488,-1.8491,-1.8516,-1.8521,-1.8525,-1.8472,-1.8472,-1.8471,0,0,-1.8091,-1.8114,-1.8146,-1.8169,-1.8205,-1.8223,-1.8231,-1.8269,-1.8283,-1.8325,-1.8335,-1.8365,-1.8421,-1.8447,-1.8467,-1.8505,-1.8512,-1.8516,-1.8528,-1.8552,-1.8556,-1.856,-1.8574,-1.8578,-1.8519,-1.8519,-1.8519,0,-1.8095,-1.8142,-1.8161,-1.8194,-1.8215,-1.8228,-1.826,-1.8283,-1.8327,-1.8342,-1.8338,-1.841,-1.8435,-1.8485,-1.8494,-1.851,-1.852,-1.8511,-1.8554,-1.8558,-1.8561,-1.8575,-1.858,-1.8519,-1.8519,-1.8519,-1.8519,0,-1.8146,-1.8178,-1.8199,-1.8241,-1.8265,-1.8297,-1.8322,-1.8344,-1.8354,-1.8374,-1.8417,-1.8447,-1.8487,-1.85,-1.851,-1.8552,-1.8549,-1.8549,-1.8542,-1.8565,-1.8579,-1.8584,-1.852,-1.852,-1.8519,-1.8519,0,0,-1.8171,-1.8223,-1.823,-1.825,-1.829,-1.8316,-1.835,-1.8387,-1.8406,-1.8437,-1.8466,-1.8514,-1.8515,-1.8538,-1.8551,-1.8573,-1.8602,-1.8571,-1.8572,-1.8576,-1.865,-1.865,-1.8656,-1.8607,-1.8608,-1.8609,-1.8647,0,-1.8204,-1.8263,-1.8281,-1.8331,-1.8362,-1.8375,-1.8404,-1.8432,-1.8451,-1.8481,-1.8502,-1.8536,-1.8534,-1.8548,-1.857,-1.8594,-1.8618,-1.8592,-1.8635,-1.8637,-1.8626,-1.8663,-1.8662,-1.8697,-1.8653,-1.8654,-1.8654,0,-1.8251,-1.8281,-1.8334,-1.8371,-1.8384,-1.841,-1.8447,-1.8474,-1.8507,-1.852,-1.8546,-1.8558,-1.8594,-1.8585,-1.8636,-1.8618,-1.8637,-1.8652,-1.8653,-1.8658,-1.8647,-1.8669,-1.8708,-1.8714,-1.8663,-1.8662,-1.8661,0,-1.8264,-1.8319,-1.8357,-1.8373,-1.8417,-1.8435,-1.8455,-1.8487,-1.8509,-1.8541,-1.8555,-1.8592,-1.8612,-1.864,-1.8662,-1.8653,-1.8711,-1.8704,-1.8723,-1.8723,-1.8735,-1.8734,-1.8779,-1.8747,-1.8747,-1.8747,-1.8747,0,-1.83,-1.8331,-1.8364,-1.8387,-1.8424,-1.8445,-1.8481,-1.8501,-1.853,-1.8558,-1.8572,-1.8599,-1.8626,-1.8657,-1.8675,-1.8715,-1.8724,-1.8735,-1.874,-1.8734,-1.8733,-1.8747,-1.8745,-1.8748,-1.8748,-1.8748,-1.8748,0,-1.8321,-1.8343,-1.8386,-1.8424,-1.8435,-1.846,-1.8493,-1.8517,-1.8537,-1.8573,-1.8583,-1.8614,-1.8651,-1.8675,-1.8723,-1.8735,-1.8779,-1.8782,-1.8767,-1.8769,-1.8788,-1.8786,-1.8843,-1.8852,-1.8814,-1.8814,-1.8815,0,-1.8342,-1.8366,-1.8407,-1.8426,-1.8446,-1.8477,-1.8499,-1.8522,-1.8544,-1.8584,-1.8604,-1.8641,-1.8673,-1.8731,-1.8759,-1.8796,-1.8801,-1.8818,-1.8806,-1.88,-1.8801,-1.8799,-1.8802,-1.882,-1.882,-1.8821,-1.8821,0,-1.8377,-1.8387,-1.8418,-1.8453,-1.8478,-1.8507,-1.8536,-1.8552,-1.8579,-1.8604,-1.8642,-1.8666,-1.8714,-1.8752,-1.8791,-1.8812,-1.8822,-1.8824,-1.8831,-1.8826,-1.8816,-1.8822,-1.8772,-1.8823,-1.8823,-1.8822,-1.8822,-1.8822,-1.8399,-1.8422,-1.8454,-1.8488,-1.8512,-1.8538,-1.8563,-1.8585,-1.8617,-1.8657,-1.8669,-1.8708,-1.8741,-1.8795,-1.8817,-1.8848,-1.8847,-1.8856,-1.8859,-1.8861,-1.8861,-1.881,-1.8856,-1.8856,-1.8856,-1.8856,-1.8856,0,-1.8436,-1.8457,-1.8488,-1.8527,-1.8554,-1.8559,-1.8592,-1.8614,-1.8648,-1.8678,-1.8709,-1.8752,-1.8789,-1.8819,-1.8857,-1.8877,-1.8882,-1.8886,-1.8885,-1.889,-1.886,-1.885,-1.8881,-1.8881,-1.8881,-1.8881,-1.8881,-1.8881,-1.8458,-1.8496,-1.851,-1.8561,-1.8583,-1.862,-1.8638,-1.8663,-1.8687,-1.8735,-1.8765,-1.8784,-1.8815,-1.8855,-1.8889,-1.8897,-1.8911,-1.8914,-1.8923,-1.8895,-1.8892,-1.8889,-1.888,-1.8917,-1.8917,-1.895,-1.8951,-1.8951]},{"header":{"parameterUnit":"m.s-1","parameterCategory":1,"la1":30.2991,"la2":30.254,"lo1":-89.0895,"lo2":-89.0444,"dy":0.0017,"dx":0.0017,"nx":28,"ny":28,"refTime":"2025-04-18T09:00:00:Z","depth":0,"parameterNumber":3,"parameterNumberName":"V-component_of_WINDS"},"data":[0,0,0,0,0,0,0,0,0,0,0,0,0,0,0,0,0,0,0,0,0,0,0,0,0,0,0,0,0,0,0,0,0,0,0,0,0,0,0,0,0,0,0,0,0,0,0,0,0,0,0,0,0,0,0,0,0,0,5.5636,5.5637,0,5.5729,5.5731,5.5732,5.5688,5.5686,5.5683,5.5681,5.577,5.5774,5.5779,0,0,0,0,0,0,0,0,0,0,0,0,0,5.5411,5.5415,5.5636,5.5637,5.5638,5.5729,5.5731,5.5732,5.5689,5.5686,5.5683,5.568,5.5769,5.5774,5.5779,0,0,0,0,0,0,0,0,0,0,0,0,0,5.5507,5.5416,5.5635,5.5628,5.5628,5.5729,5.5731,5.5732,5.5689,5.5686,5.5682,5.5679,5.5767,5.5773,5.578,5.5892,0,0,5.5801,5.5804,0,0,0,0,0,0,0,0,5.5501,5.5515,5.5627,5.5628,5.5629,5.5694,5.5684,5.5786,5.569,5.5666,5.5681,5.5677,5.5747,5.5755,5.578,5.5896,5.59,5.5802,5.5806,5.5809,5.5811,0,0,0,0,0,0,0,5.5495,5.5511,5.5672,5.5629,5.563,5.5617,5.5626,5.5703,5.5724,5.5667,5.5665,5.5677,5.5747,5.5774,5.5782,5.5902,5.5801,5.5807,5.5812,5.5814,5.6112,5.6115,0,0,0,0,0,0,5.5489,5.5505,5.5669,5.5675,5.5555,5.5624,5.5634,5.5676,5.5724,5.5728,5.568,5.5674,5.5764,5.5774,5.5785,5.5918,5.5809,5.5815,5.5819,5.6108,5.6113,5.6117,0,0,0,0,0,0,5.5485,5.5504,5.5666,5.559,5.5609,5.5631,5.5678,5.568,5.5707,5.5733,5.5736,5.5704,5.5762,5.5775,5.5866,5.592,5.5818,5.5824,5.6104,5.6109,5.6115,5.6185,0,0,0,0,0,0,5.5478,5.5503,5.5548,5.5591,5.5614,5.5748,5.5682,5.5684,5.572,5.5714,5.5757,5.576,5.576,5.5856,5.5873,5.5928,5.583,5.6099,5.6106,5.6113,5.6178,5.6193,5.6205,0,0,0,0,0,5.547,5.5563,5.555,5.557,5.567,5.5751,5.5763,5.5763,5.5725,5.5768,5.5784,5.5759,5.5912,5.5866,5.5884,5.5942,5.6095,5.6104,5.6112,5.6172,5.619,5.6205,0,0,0,0,0,0,5.5523,5.5568,5.5555,5.5665,5.5705,5.5744,5.5799,5.5782,5.5832,5.5824,5.582,5.583,5.5923,5.5942,5.5889,5.6052,5.5997,5.601,5.6036,5.6053,5.6067,5.6059,5.5835,0,0,0,0,0,5.5548,5.5612,5.5647,5.574,5.5761,5.5777,5.5812,5.5809,5.5849,5.5865,5.5887,5.5925,5.5981,5.6019,5.6072,5.6181,5.6188,5.623,5.6243,5.6254,5.6265,5.6321,5.6339,5.6145,5.6145,5.6145,0,0,5.5598,5.5631,5.5672,5.5752,5.5782,5.5846,5.5791,5.5861,5.5908,5.5874,5.5961,5.598,5.6021,5.6121,5.6166,5.6139,5.632,5.6265,5.6274,5.6278,5.6332,5.635,5.6367,5.6151,5.615,5.6149,0,0,5.5724,5.5756,5.5837,5.5869,5.5916,5.5926,5.5945,5.5987,5.5998,5.6087,5.6062,5.6116,5.6214,5.6244,5.6272,5.6408,5.6385,5.6426,5.6495,5.6551,5.6566,5.6579,5.6626,5.6643,5.6436,5.6436,5.6437,0,5.578,5.5878,5.5879,5.5952,5.5986,5.5961,5.6041,5.6071,5.6133,5.6156,5.6126,5.6247,5.6274,5.6379,5.6412,5.6437,5.6456,5.642,5.6564,5.6578,5.659,5.6634,5.6652,5.6441,5.644,5.644,5.6439,0,5.5944,5.6012,5.6071,5.6134,5.6175,5.625,5.626,5.6301,5.6294,5.6306,5.6394,5.6425,5.6484,5.6509,5.6502,5.6613,5.6595,5.6565,5.6509,5.6613,5.6654,5.6671,5.6447,5.6446,5.6444,5.6443,0,0,5.6104,5.6167,5.6188,5.6216,5.6266,5.6317,5.639,5.645,5.6484,5.6527,5.6587,5.667,5.6642,5.6674,5.667,5.6719,5.6822,5.6683,5.6683,5.6706,5.6943,5.6965,5.6984,5.6808,5.6811,5.6814,5.6939,0,5.6231,5.6363,5.6366,5.6484,5.6546,5.6523,5.6586,5.6622,5.6635,5.6687,5.67,5.6758,5.6719,5.6737,5.6785,5.68,5.6869,5.6791,5.686,5.6863,5.6849,5.7006,5.7029,5.7146,5.6956,5.6958,5.696,0,5.6398,5.6448,5.6574,5.6615,5.664,5.6698,5.6751,5.6802,5.6842,5.6848,5.6884,5.6872,5.6943,5.6887,5.6984,5.6931,5.6959,5.697,5.6975,5.698,5.6917,5.7013,5.7183,5.72,5.6986,5.6984,5.6982,0,5.65,5.6599,5.6687,5.6711,5.6761,5.6801,5.6824,5.686,5.6895,5.6941,5.6963,5.7017,5.7045,5.7085,5.7087,5.7047,5.7184,5.7129,5.7189,5.7189,5.7217,5.7215,5.7392,5.7239,5.7239,5.7238,5.7238,0,5.6641,5.6718,5.6733,5.6787,5.6872,5.6873,5.6956,5.6974,5.7007,5.7061,5.7044,5.7095,5.7096,5.7147,5.7149,5.7227,5.7241,5.7245,5.7244,5.7246,5.7245,5.7263,5.7254,5.7243,5.7242,5.7241,5.724,0,5.6768,5.6782,5.6876,5.6916,5.6928,5.6988,5.7021,5.707,5.7082,5.7151,5.7167,5.7184,5.7244,5.725,5.7319,5.732,5.7414,5.7406,5.7402,5.74,5.7458,5.7452,5.7652,5.7677,5.7509,5.751,5.7512,0,5.6857,5.6916,5.6963,5.6999,5.7024,5.7083,5.7119,5.7122,5.716,5.7209,5.7252,5.731,5.7357,5.7452,5.7469,5.7521,5.7512,5.7578,5.7519,5.7518,5.751,5.7506,5.7511,5.7589,5.7591,5.7592,5.7594,0,5.7011,5.7015,5.7069,5.7126,5.717,5.7214,5.7255,5.7285,5.7292,5.7335,5.7397,5.7433,5.7504,5.7561,5.7612,5.7631,5.7613,5.7613,5.7629,5.763,5.7624,5.7626,5.7431,5.7607,5.7606,5.7605,5.7604,5.7604,5.712,5.7171,5.7212,5.7273,5.7304,5.7343,5.7391,5.7409,5.7462,5.7521,5.7519,5.7586,5.7622,5.7689,5.7712,5.7763,5.774,5.7764,5.777,5.7775,5.7781,5.7618,5.7772,5.7772,5.7772,5.7771,5.7771,0,5.7272,5.7298,5.7354,5.7413,5.7459,5.7441,5.7485,5.7524,5.7585,5.7621,5.7668,5.7737,5.7792,5.7814,5.7867,5.7903,5.7896,5.7916,5.7913,5.7917,5.7799,5.7779,5.7921,5.7921,5.7921,5.7921,5.7921,5.7921,5.7357,5.7442,5.745,5.7549,5.7573,5.7641,5.7667,5.7702,5.7731,5.781,5.7857,5.7871,5.79,5.7955,5.8004,5.8008,5.8027,5.8052,5.8052,5.7941,5.7926,5.7911,5.7892,5.8056,5.8057,5.8166,5.8167,5.8168]}]]